| time (UTC) | temp F | wind direction | speed MPH | gust MPH | rain 1hr in | rain 24hr in | rain mn in | humidity % | barometer mb |
| 20260504160300 | 81 | 193 | 6.0 | 10.0 | 0.00 | 0.00 | 0.00 | ||
| 20260504151032 | 81 | 167 | 7.0 | 10.0 | 0.00 | 0.00 | 0.00 | ||
| 20260504150624 | 81 | 197 | 10.0 | 15.0 | 0.00 | 0.00 | 0.00 | ||
| 20260504150222 | 81 | 176 | 9.0 | 12.0 | 0.00 | 0.00 | 0.00 | ||
| 20260504140954 | 81 | 166 | 9.0 | 11.0 | 0.00 | 0.00 | 0.00 | ||
| 20260504140553 | 81 | 162 | 11.0 | 16.0 | 0.00 | 0.00 | 0.00 | ||
| 20260504140150 | 81 | 164 | 12.0 | 16.0 | 0.00 | 0.00 | 0.00 | ||
| 20260504130513 | 80 | 189 | 8.0 | 12.0 | 0.00 | 0.00 | 0.00 | ||
| 20260504130111 | 79 | 207 | 7.0 | 11.0 | 0.00 | 0.00 | 0.00 | ||
| 20260504110403 | 80 | 158 | 10.0 | 14.0 | 0.00 | 0.00 | 0.00 | ||
| 20260504100333 | 77 | 182 | 10.0 | 13.0 | 0.00 | 0.00 | 0.00 | ||
| 20260504081829 | 73 | 151 | 11.0 | 18.0 | 0.00 | 0.00 | 0.00 | ||
| 20260504081428 | 73 | 150 | 10.0 | 16.0 | 0.00 | 0.00 | 0.00 | ||
| 20260504081027 | 72 | 135 | 11.0 | 17.0 | 0.00 | 0.00 | 0.00 | ||
| 20260504080743 | 73 | 151 | 10.0 | 17.0 | 0.00 | 0.00 | 0.00 | ||
| 20260504080625 | 73 | 151 | 10.0 | 17.0 | 0.00 | 0.00 | 0.00 | ||
| 20260504080224 | 73 | 144 | 10.0 | 13.0 | 0.00 | 0.00 | 0.00 | ||
| 20260504070145 | 75 | 164 | 9.0 | 13.0 | 0.00 | 0.00 | 0.00 | ||
| 20260504060114 | 68 | 148 | 9.0 | 14.0 | 0.00 | 0.00 | 0.00 | ||
| 20260504050442 | 66 | 145 | 10.0 | 15.0 | 0.00 | 0.00 | 0.00 | ||
| 20260504045633 | 65 | 144 | 10.0 | 16.0 | 0.00 | 0.00 | 0.00 | ||
| 20260504045230 | 65 | 137 | 11.0 | 16.0 | 0.00 | 0.00 | 0.00 | ||
| 20260504044829 | 64 | 136 | 10.0 | 20.0 | 0.00 | 0.00 | 0.00 | ||
| 20260504044428 | 65 | 137 | 7.0 | 12.0 | 0.00 | 0.00 | 0.00 | ||
| 20260504044027 | 64 | 158 | 11.0 | 14.0 | 0.00 | 0.00 | 0.00 | ||
| 20260504043625 | 64 | 141 | 7.0 | 10.0 | 0.00 | 0.00 | 0.00 | ||
| 20260504043223 | 64 | 148 | 9.0 | 13.0 | 0.00 | 0.00 | 0.00 | ||
| 20260504042822 | 64 | 139 | 10.0 | 15.0 | 0.00 | 0.00 | 0.00 | ||
| 20260504042420 | 64 | 150 | 9.0 | 13.0 | 0.00 | 0.00 | 0.00 | ||
| 20260504042012 | 64 | 145 | 8.0 | 11.0 | 0.00 | 0.00 | 0.00 | ||
| 20260504041609 | 63 | 150 | 8.0 | 11.0 | 0.00 | 0.00 | 0.00 | ||
| 20260504041208 | 63 | 139 | 9.0 | 15.0 | 0.00 | 0.00 | 0.00 | ||
| 20260504040807 | 63 | 146 | 8.0 | 11.0 | 0.00 | 0.00 | 0.00 | ||
| 20260504040405 | 62 | 150 | 8.0 | 12.0 | 0.00 | 0.00 | 0.00 | ||
| 20260504040003 | 62 | 143 | 8.0 | 13.0 | 0.00 | 0.00 | 0.00 | ||
| 20260504035601 | 62 | 148 | 8.0 | 11.0 | 0.00 | 0.00 | 0.00 | ||
| 20260504035200 | 62 | 141 | 7.0 | 12.0 | 0.00 | 0.00 | 0.00 | ||
| 20260504034759 | 61 | 141 | 8.0 | 12.0 | 0.00 | 0.00 | 0.00 | ||
| 20260504034356 | 61 | 141 | 8.0 | 11.0 | 0.00 | 0.00 | 0.00 | ||
| 20260504033948 | 61 | 150 | 8.0 | 10.0 | 0.00 | 0.00 | 0.00 | ||
| 20260504033546 | 61 | 148 | 8.0 | 11.0 | 0.00 | 0.00 | 0.00 | ||
| 20260504033145 | 61 | 153 | 9.0 | 16.0 | 0.00 | 0.00 | 0.00 | ||
| 20260504032744 | 61 | 141 | 10.0 | 14.0 | 0.00 | 0.00 | 0.00 | ||
| 20260504032341 | 61 | 136 | 10.0 | 13.0 | 0.00 | 0.00 | 0.00 | ||
| 20260504031940 | 61 | 143 | 9.0 | 12.0 | 0.00 | 0.00 | 0.00 | ||
| 20260504031538 | 60 | 144 | 9.0 | 13.0 | 0.00 | 0.00 | 0.00 | ||
| 20260504031137 | 61 | 136 | 9.0 | 12.0 | 0.00 | 0.00 | 0.00 | ||
| 20260504030735 | 61 | 139 | 11.0 | 14.0 | 0.00 | 0.00 | 0.00 | ||
| 20260504030333 | 61 | 139 | 9.0 | 14.0 | 0.00 | 0.00 | 0.00 | ||
| 20260504025524 | 61 | 142 | 10.0 | 13.0 | 0.00 | 0.00 | 0.00 | ||
| 20260504025121 | 60 | 141 | 8.0 | 10.0 | 0.00 | 0.00 | 0.00 | ||
| 20260504024720 | 61 | 141 | 8.0 | 13.0 | 0.00 | 0.00 | 0.00 | ||
| 20260504024319 | 61 | 143 | 9.0 | 13.0 | 0.00 | 0.00 | 0.00 | ||
| 20260504023918 | 60 | 141 | 9.0 | 14.0 | 0.00 | 0.00 | 0.00 | ||
| 20260504023515 | 60 | 137 | 8.0 | 11.0 | 0.00 | 0.00 | 0.00 | ||
| 20260504023114 | 61 | 133 | 9.0 | 16.0 | 0.00 | 0.00 | 0.00 | ||
| 20260504022713 | 61 | 145 | 9.0 | 13.0 | 0.00 | 0.00 | 0.00 | ||
| 20260504022311 | 61 | 135 | 8.0 | 11.0 | 0.00 | 0.00 | 0.00 | ||
| 20260504021903 | 61 | 137 | 9.0 | 13.0 | 0.00 | 0.00 | 0.00 | ||
| 20260504021500 | 61 | 130 | 7.0 | 10.0 | 0.00 | 0.00 | 0.00 | ||
| 20260504021059 | 61 | 135 | 7.0 | 10.0 | 0.00 | 0.00 | 0.00 | ||
| 20260504020658 | 61 | 148 | 10.0 | 18.0 | 0.00 | 0.00 | 0.00 | ||
| 20260504020256 | 61 | 137 | 7.0 | 11.0 | 0.00 | 0.00 | 0.00 | ||
| 20260504015854 | 61 | 137 | 9.0 | 14.0 | 0.00 | 0.00 | 0.00 | ||
| 20260504015452 | 61 | 137 | 8.0 | 12.0 | 0.00 | 0.00 | 0.00 | ||
| 20260504015051 | 61 | 138 | 7.0 | 10.0 | 0.00 | 0.00 | 0.00 | ||
| 20260504014650 | 61 | 138 | 6.0 | 10.0 | 0.00 | 0.00 | 0.00 | ||
| 20260504014247 | 61 | 131 | 9.0 | 13.0 | 0.00 | 0.00 | 0.00 | ||
| 20260504013839 | 61 | 136 | 7.0 | 9.0 | 0.00 | 0.00 | 0.00 | ||
| 20260504013437 | 61 | 138 | 9.0 | 12.0 | 0.00 | 0.00 | 0.00 | ||
| 20260504013036 | 61 | 138 | 9.0 | 12.0 | 0.00 | 0.00 | 0.00 | ||
| 20260504012634 | 61 | 135 | 8.0 | 12.0 | 0.00 | 0.00 | 0.00 | ||
| 20260504012233 | 61 | 137 | 8.0 | 12.0 | 0.00 | 0.00 | 0.00 | ||
| 20260504011832 | 61 | 129 | 7.0 | 12.0 | 0.00 | 0.00 | 0.00 | ||
| 20260504011430 | 61 | 133 | 8.0 | 16.0 | 0.00 | 0.00 | 0.00 | ||
| 20260504011029 | 61 | 143 | 6.0 | 10.0 | 0.00 | 0.00 | 0.00 | ||
| 20260504010627 | 61 | 144 | 4.0 | 6.0 | 0.00 | 0.00 | 0.00 | ||
| 20260504010225 | 61 | 153 | 6.0 | 9.0 | 0.00 | 0.00 | 0.00 | ||
| 20260504005817 | 61 | 152 | 7.0 | 11.0 | 0.00 | 0.00 | 0.00 | ||
| 20260504005415 | 61 | 152 | 5.0 | 8.0 | 0.00 | 0.00 | 0.00 | ||
| 20260504005013 | 61 | 147 | 5.0 | 9.0 | 0.00 | 0.00 | 0.00 | ||
| 20260504004612 | 61 | 157 | 4.0 | 8.0 | 0.00 | 0.00 | 0.00 | ||
| 20260504004210 | 61 | 156 | 5.0 | 7.0 | 0.00 | 0.00 | 0.00 | ||
| 20260504003809 | 61 | 145 | 5.0 | 8.0 | 0.00 | 0.00 | 0.00 | ||
| 20260504003406 | 61 | 154 | 6.0 | 9.0 | 0.00 | 0.00 | 0.00 | ||
| 20260504003005 | 61 | 141 | 4.0 | 9.0 | 0.00 | 0.00 | 0.00 | ||
| 20260504002604 | 61 | 134 | 5.0 | 9.0 | 0.00 | 0.00 | 0.00 | ||
| 20260504002202 | 62 | 140 | 5.0 | 10.0 | 0.00 | 0.00 | 0.00 | ||
| 20260504001753 | 61 | 151 | 6.0 | 11.0 | 0.00 | 0.00 | 0.00 | ||
| 20260504001351 | 62 | 139 | 5.0 | 8.0 | 0.00 | 0.00 | 0.00 | ||
| 20260504000950 | 62 | 141 | 5.0 | 9.0 | 0.00 | 0.00 | 0.00 | ||
| 20260504000549 | 62 | 148 | 7.0 | 11.0 | 0.00 | 0.00 | 0.00 | ||
| 20260504000148 | 61 | 135 | 6.0 | 10.0 | 0.00 | 0.00 | 0.00 | ||
| 20260503235344 | 61 | 146 | 8.0 | 12.0 | 0.00 | 0.00 | 0.00 | ||
| 20260503235211 | 61 | 145 | 8.0 | 13.0 | 0.00 | 0.00 | 0.00 | ||
| 20260503234943 | 62 | 144 | 8.0 | 12.0 | 0.00 | 0.00 | 0.00 | ||
| 20260503234542 | 61 | 145 | 8.0 | 13.0 | 0.00 | 0.00 | 0.00 | ||
| 20260503234139 | 62 | 146 | 8.0 | 11.0 | 0.00 | 0.00 | 0.00 | ||
| 20260503233731 | 62 | 143 | 8.0 | 11.0 | 0.00 | 0.00 | 0.00 | ||
| 20260503233329 | 62 | 150 | 8.0 | 13.0 | 0.00 | 0.00 | 0.00 | ||
| 20260503232928 | 62 | 151 | 9.0 | 16.0 | 0.00 | 0.00 | 0.00 | ||
| 20260503232526 | 62 | 155 | 7.0 | 10.0 | 0.00 | 0.00 | 0.00 | ||
| 20260503232124 | 62 | 146 | 7.0 | 10.0 | 0.00 | 0.00 | 0.00 | ||
| 20260503231723 | 62 | 150 | 9.0 | 11.0 | 0.00 | 0.00 | 0.00 | ||
| 20260503231321 | 62 | 150 | 7.0 | 12.0 | 0.00 | 0.00 | 0.00 | ||
| 20260503230919 | 62 | 144 | 7.0 | 9.0 | 0.00 | 0.00 | 0.00 | ||
| 20260503230518 | 62 | 135 | 6.0 | 11.0 | 0.00 | 0.00 | 0.00 | ||
| 20260503230116 | 62 | 153 | 7.0 | 10.0 | 0.00 | 0.00 | 0.00 | ||
| 20260503225708 | 62 | 138 | 6.0 | 10.0 | 0.00 | 0.00 | 0.00 | ||
| 20260503225306 | 62 | 141 | 6.0 | 8.0 | 0.00 | 0.00 | 0.00 | ||
| 20260503224904 | 62 | 145 | 6.0 | 9.0 | 0.00 | 0.00 | 0.00 | ||
| 20260503224503 | 62 | 150 | 7.0 | 10.0 | 0.00 | 0.00 | 0.00 | ||
| 20260503224101 | 62 | 157 | 7.0 | 10.0 | 0.00 | 0.00 | 0.00 | ||
| 20260503223700 | 62 | 153 | 7.0 | 11.0 | 0.00 | 0.00 | 0.00 | ||
| 20260503223257 | 63 | 153 | 7.0 | 11.0 | 0.00 | 0.00 | 0.00 | ||
| 20260503222856 | 63 | 144 | 7.0 | 12.0 | 0.00 | 0.00 | 0.00 | ||
| 20260503222455 | 63 | 151 | 6.0 | 10.0 | 0.00 | 0.00 | 0.00 | ||
| 20260503222053 | 63 | 151 | 6.0 | 8.0 | 0.00 | 0.00 | 0.00 | ||
| 20260503221644 | 63 | 151 | 7.0 | 11.0 | 0.00 | 0.00 | 0.00 | ||
| 20260503221242 | 63 | 146 | 5.0 | 9.0 | 0.00 | 0.00 | 0.00 | ||
| 20260503220841 | 63 | 151 | 7.0 | 10.0 | 0.00 | 0.00 | 0.00 | ||
| 20260503220540 | 62 | 148 | 5.0 | 9.0 | 0.00 | 0.00 | 0.00 | ||
| 20260503220440 | 62 | 148 | 5.0 | 9.0 | 0.00 | 0.00 | 0.00 | ||
| 20260503220036 | 63 | 136 | 6.0 | 9.0 | 0.00 | 0.00 | 0.00 | ||
| 20260503215638 | 62 | 157 | 5.0 | 7.0 | 0.00 | 0.00 | 0.00 | ||
| 20260503215635 | 63 | 145 | 6.0 | 10.0 | 0.00 | 0.00 | 0.00 | ||
| 20260503215233 | 62 | 157 | 5.0 | 7.0 | 0.00 | 0.00 | 0.00 | ||
| 20260503214832 | 63 | 168 | 6.0 | 8.0 | 0.00 | 0.00 | 0.00 | ||
| 20260503214431 | 63 | 151 | 4.0 | 7.0 | 0.00 | 0.00 | 0.00 | ||
| 20260503214027 | 63 | 157 | 4.0 | 5.0 | 0.00 | 0.00 | 0.00 | ||
| 20260503213620 | 63 | 157 | 4.0 | 8.0 | 0.00 | 0.00 | 0.00 | ||
| 20260503213218 | 64 | 158 | 4.0 | 6.0 | 0.00 | 0.00 | 0.00 | ||
| 20260503212817 | 64 | 176 | 4.0 | 7.0 | 0.00 | 0.00 | 0.00 | ||
| 20260503212013 | 64 | 157 | 3.0 | 5.0 | 0.00 | 0.00 | 0.00 | ||
| 20260503211612 | 64 | 157 | 4.0 | 6.0 | 0.00 | 0.00 | 0.00 | ||
| 20260503211210 | 64 | 157 | 4.0 | 9.0 | 0.00 | 0.00 | 0.00 | ||
| 20260503210808 | 63 | 178 | 4.0 | 5.0 | 0.00 | 0.00 | 0.00 | ||
| 20260503210407 | 64 | 170 | 7.0 | 9.0 | 0.00 | 0.00 | 0.00 | ||
| 20260503210006 | 63 | 154 | 4.0 | 7.0 | 0.00 | 0.00 | 0.00 | ||
| 20260503205557 | 63 | 135 | 4.0 | 7.0 | 0.00 | 0.00 | 0.00 | ||
| 20260503205154 | 63 | 135 | 4.0 | 6.0 | 0.00 | 0.00 | 0.00 | ||
| 20260503204753 | 64 | 127 | 5.0 | 6.0 | 0.00 | 0.00 | 0.00 | ||
| 20260503204352 | 64 | 135 | 4.0 | 7.0 | 0.00 | 0.00 | 0.00 | ||
| 20260503203950 | 64 | 135 | 4.0 | 6.0 | 0.00 | 0.00 | 0.00 | ||
| 20260503203549 | 64 | 135 | 4.0 | 6.0 | 0.00 | 0.00 | 0.00 | ||
| 20260503203146 | 64 | 141 | 4.0 | 7.0 | 0.00 | 0.00 | 0.00 | ||
| 20260503202745 | 64 | 137 | 3.0 | 7.0 | 0.00 | 0.00 | 0.00 | ||
| 20260503202345 | 64 | 145 | 5.0 | 8.0 | 0.00 | 0.00 | 0.00 | ||
| 20260503201943 | 64 | 147 | 4.0 | 6.0 | 0.00 | 0.00 | 0.00 | ||
| 20260503201533 | 64 | 141 | 4.0 | 9.0 | 0.00 | 0.00 | 0.00 | ||
| 20260503201132 | 65 | 147 | 5.0 | 8.0 | 0.00 | 0.00 | 0.00 | ||
| 20260503200731 | 65 | 140 | 5.0 | 7.0 | 0.00 | 0.00 | 0.00 | ||
| 20260503200330 | 65 | 154 | 4.0 | 7.0 | 0.00 | 0.00 | 0.00 | ||
| 20260503195927 | 65 | 157 | 5.0 | 8.0 | 0.00 | 0.00 | 0.00 | ||
| 20260503195526 | 65 | 150 | 5.0 | 8.0 | 0.00 | 0.00 | 0.00 | ||
| 20260503195124 | 66 | 156 | 6.0 | 9.0 | 0.00 | 0.00 | 0.00 | ||
| 20260503194723 | 66 | 157 | 6.0 | 9.0 | 0.00 | 0.00 | 0.00 | ||
| 20260503194321 | 66 | 157 | 5.0 | 8.0 | 0.00 | 0.00 | 0.00 | ||
| 20260503193919 | 67 | 156 | 5.0 | 9.0 | 0.00 | 0.00 | 0.00 | ||
| 20260503193511 | 67 | 165 | 6.0 | 8.0 | 0.00 | 0.00 | 0.00 | ||
| 20260503193109 | 68 | 161 | 6.0 | 10.0 | 0.00 | 0.00 | 0.00 | ||
| 20260503192708 | 68 | 165 | 5.0 | 7.0 | 0.00 | 0.00 | 0.00 | ||
| 20260503192306 | 68 | 174 | 7.0 | 10.0 | 0.00 | 0.00 | 0.00 | ||
| 20260503191904 | 69 | 191 | 6.0 | 8.0 | 0.00 | 0.00 | 0.00 | ||
| 20260503191503 | 69 | 172 | 7.0 | 10.0 | 0.00 | 0.00 | 0.00 | ||
| 20260503191101 | 69 | 191 | 6.0 | 9.0 | 0.00 | 0.00 | 0.00 | ||
| 20260503190659 | 69 | 186 | 6.0 | 10.0 | 0.00 | 0.00 | 0.00 | ||
| 20260503190258 | 69 | 202 | 5.0 | 7.0 | 0.00 | 0.00 | 0.00 | ||
| 20260503185856 | 69 | 192 | 7.0 | 9.0 | 0.00 | 0.00 | 0.00 | ||
| 20260503185448 | 70 | 192 | 7.0 | 10.0 | 0.00 | 0.00 | 0.00 | ||
| 20260503185045 | 70 | 182 | 7.0 | 11.0 | 0.00 | 0.00 | 0.00 | ||
| 20260503184644 | 70 | 187 | 8.0 | 11.0 | 0.00 | 0.00 | 0.00 | ||
| 20260503184243 | 70 | 198 | 9.0 | 13.0 | 0.00 | 0.00 | 0.00 | ||
| 20260503183842 | 70 | 194 | 9.0 | 12.0 | 0.00 | 0.00 | 0.00 | ||
| 20260503183439 | 70 | 191 | 8.0 | 10.0 | 0.00 | 0.00 | 0.00 | ||
| 20260503183038 | 70 | 193 | 7.0 | 10.0 | 0.00 | 0.00 | 0.00 | ||
| 20260503182637 | 71 | 189 | 7.0 | 10.0 | 0.00 | 0.00 | 0.00 | ||
| 20260503182236 | 71 | 185 | 7.0 | 9.0 | 0.00 | 0.00 | 0.00 | ||
| 20260503181834 | 71 | 191 | 8.0 | 10.0 | 0.00 | 0.00 | 0.00 | ||
| 20260503181425 | 71 | 180 | 6.0 | 9.0 | 0.00 | 0.00 | 0.00 | ||
| 20260503181023 | 72 | 192 | 7.0 | 9.0 | 0.00 | 0.00 | 0.00 | ||
| 20260503180622 | 72 | 187 | 7.0 | 10.0 | 0.00 | 0.00 | 0.00 | ||
| 20260503180221 | 72 | 180 | 4.0 | 7.0 | 0.00 | 0.00 | 0.00 | ||
| 20260503175818 | 72 | 193 | 8.0 | 12.0 | 0.00 | 0.00 | 0.00 | ||
| 20260503175416 | 73 | 180 | 7.0 | 10.0 | 0.00 | 0.00 | 0.00 | ||
| 20260503175015 | 73 | 182 | 7.0 | 10.0 | 0.00 | 0.00 | 0.00 | ||
| 20260503174614 | 73 | 192 | 8.0 | 14.0 | 0.00 | 0.00 | 0.00 | ||
| 20260503174211 | 73 | 183 | 8.0 | 11.0 | 0.00 | 0.00 | 0.00 | ||
| 20260503173810 | 74 | 178 | 9.0 | 10.0 | 0.00 | 0.00 | 0.00 | ||
| 20260503173402 | 74 | 181 | 9.0 | 12.0 | 0.00 | 0.00 | 0.00 | ||
| 20260503173000 | 75 | 171 | 5.0 | 8.0 | 0.00 | 0.00 | 0.00 | ||
| 20260503172558 | 75 | 172 | 8.0 | 11.0 | 0.00 | 0.00 | 0.00 | ||
| 20260503172157 | 75 | 172 | 8.0 | 13.0 | 0.00 | 0.00 | 0.00 | ||
| 20260503171755 | 75 | 183 | 9.0 | 12.0 | 0.00 | 0.00 | 0.00 | ||
| 20260503171354 | 75 | 170 | 9.0 | 13.0 | 0.00 | 0.00 | 0.00 | ||
| 20260503170952 | 76 | 169 | 7.0 | 10.0 | 0.00 | 0.00 | 0.00 | ||
| 20260503170550 | 76 | 182 | 8.0 | 14.0 | 0.00 | 0.00 | 0.00 | ||
| 20260503170149 | 76 | 171 | 8.0 | 10.0 | 0.00 | 0.00 | 0.00 |